Regional Weather Roundup
Issued by NWS

Home | Current Version | Previous Version | Text Only | Print | Product List | Glossary Off
Versions: 1 2 3 4 5 6 7 8 9 10 11 12 13 14 15 16 17 18 19 20 21 22 23 24 25 26 27

000
ASUS45 KCYS 212010
RWRWY

WYOMING REGIONAL WEATHER ROUNDUP
NATIONAL WEATHER SERVICE CHEYENNE WY
200 PM MDT WED JUN 21 2017

NOTE:  "FAIR" INDICATES FEW OR NO CLOUDS BELOW 12,000 FEET
WITH NO SIGNIFICANT WEATHER AND/OR OBSTRUCTIONS TO VISIBILITY.

WYZ001-212100-
YELLOWSTONE NATIONAL PARK

CITY           SKY/WX    TMP DP  RH WIND       PRES   REMARKS
LK YELLOWSTONE   N/A     72  31  22 W10G20    30.19F
W YELLOWSTONE  NOT AVBL

$$
WYZ002>013-054>058-071-098>099-212100-
NORTHERN WYOMING

CITY           SKY/WX    TMP DP  RH WIND       PRES   REMARKS
JACKSON        MOSUNNY   79  45  29 S17G29    30.12F
CODY           FAIR      80  50  34 NE12      29.94F
GREYBULL       FAIR      88  45  22 VRB6      29.84F
WORLAND        FAIR      88  49  25 NE8       29.86F
SHERIDAN       FAIR      80  49  33 VRB5      29.92F
BUFFALO        FAIR      75  50  41 W3        29.99F
GILLETTE       FAIR      83  47  28 VRB5G21   29.93F
NEWCASTLE      FAIR      84  45  24 NW15      29.91S

$$
WYZ014>020-022>026-101>103-212100-
CENTRAL WYOMING

CITY           SKY/WX    TMP DP  RH WIND       PRES   REMARKS
BIG PINEY      FAIR      84  41  21 NW15      30.14F
PINEDALE       FAIR      81  36  19 W18G28    30.16F
DUBOIS         FAIR      79  36  21 NW31G40   30.10F
LANDER         FAIR      91  41  17 NW16G28   29.98F
RIVERTON       FAIR      92  35  13 W26G37    29.96F
CASPER         FAIR      91  40  16 W21G28    29.95F
DOUGLAS        FAIR      88  47  24 VRB6      29.95F

$$
WYZ021-027>030-104>119-212100-
SOUTHERN WYOMING

CITY           SKY/WX    TMP DP  RH WIND       PRES   REMARKS
EVANSTON       FAIR      85  41  21 W21G26    30.19F
KEMMERER         N/A     81  41  24 W17G23    30.19F
FORT BRIDGER   FAIR      88  33  13 W23G31    30.19F
ROCK SPRINGS   FAIR      86  34  15 W18G28    30.12F
DIXON          FAIR      87  32  14 SW6       30.14F
RAWLINS        FAIR      88  30  12 W20G31    30.11F
SARATOGA       FAIR      88  32  13 W18G28    30.16F
LARAMIE        FAIR      84  32  15 NW16G31   30.15F
CHEYENNE       FAIR      90  32  12 W20G30    30.06F
TORRINGTON     FAIR      95  41  15 W14       29.88F HX  91
PINE BLUFFS    FAIR      91  30  11 NW21      29.99F

$$




USA.gov is the U.S. government's official web portal to all federal, state and local government web resources and services.